Date String (YYYY-MM-DD hh:mm:ss) UTC,Instrument flags,absolute air pressure of the measurement (hPa),sample flow rate (lpm),inlet stack bypass flow (lpm),air temperature of the measurement (°C),ambient temperature measured by the external sensor (°C),aerosol sample conditioner tube jacket temperature (°C),OPC LED temperature (°C),internal box temperature (°C),relative humidity of the measurement (%),span deviation,mass concentration of particles derived from Lorenz-Mie calculation of OPC scattering (μg/m³),mass concentration of particles derived from Lorenz-Mie calculation of OPC scattering (μg/m³),mass concentration of particles derived from Lorenz-Mie calculation of OPC scattering (μg/m³)
DateTimeUTC,F1_M11,P_M11,Q1_M11,Q2_M11,T1_M11,T2_M11,T3_M11,T4_M11,T5_M11,U1_M11,ZSPAN_M11,X0_M11,X2_M11,X1_M11
2023-08-23 08:00:00,SystemResetWarning,0834.4,5.02,000.00,028.2,024.6,000.0,036.4,029.6,22.6,0001.0,0014.89,0007.95,0006.98
2023-08-23 08:01:00,SystemResetWarning,0834.2,5.00,000.00,028.1,024.6,000.0,036.4,029.5,22.9,0001.3,0014.77,0007.93,0006.98
2023-08-23 08:02:00,SystemResetWarning,0834.3,5.00,000.00,028.1,024.9,000.0,036.4,029.4,23.0,0001.7,0014.77,0007.89,0006.99
2023-08-23 08:03:00,SystemResetWarning,0834.5,5.00,000.00,028.1,025.2,000.0,036.5,029.5,23.0,0002.0,0014.84,0007.92,0007.01
2023-08-23 08:04:00,SystemResetWarning,0834.5,5.00,000.00,028.1,025.6,000.0,036.5,029.6,23.0,0002.1,0014.81,0007.93,0007.03
2023-08-23 08:05:00,SystemResetWarning,0834.6,5.00,000.00,028.1,025.9,000.0,036.5,029.7,23.0,0001.9,0014.15,0007.94,0007.05
2023-08-23 08:06:00,SystemResetWarning,0834.5,5.00,000.00,028.1,026.2,000.0,036.5,029.8,23.6,0001.9,0014.85,0007.94,0007.05
2023-08-23 08:07:00,SystemResetWarning,0834.4,5.00,000.00,028.2,026.5,000.0,036.5,029.8,24.2,0002.0,0013.99,0007.92,0007.05
2023-08-23 08:08:00,SystemResetWarning,0834.4,4.99,000.00,028.2,026.7,000.0,036.6,029.9,24.0,0001.5,0014.09,0007.93,0007.05
2023-08-23 08:09:00,SystemResetWarning,0834.4,4.99,000.00,028.2,026.9,000.0,036.6,029.9,24.2,0001.3,0014.18,0007.94,0007.08
2023-08-23 08:10:00,SystemResetWarning,0834.6,5.00,000.00,028.3,027.0,000.0,036.6,030.0,25.0,0000.9,0014.53,0007.96,0007.10
2023-08-23 08:11:00,SystemResetWarning,0834.5,5.01,000.00,028.3,027.1,000.0,036.6,030.0,25.8,0001.2,0014.58,0007.97,0007.10
2023-08-23 08:12:00,SystemResetWarning,0834.5,5.01,000.00,028.4,027.3,000.0,036.7,030.1,26.0,0001.3,0014.49,0008.02,0007.11
2023-08-23 08:13:00,SystemResetWarning,0834.5,5.00,000.00,028.4,026.7,000.0,036.6,030.0,26.2,0001.1,0014.35,0008.02,0007.11
2023-08-23 08:14:00,SystemResetWarning,0834.5,4.98,000.00,028.3,025.0,000.0,036.5,029.7,26.2,0001.1,0014.37,0008.02,0007.12
2023-08-23 08:15:00,SystemResetWarning,0834.5,5.00,000.00,028.2,024.6,000.0,036.4,029.6,26.1,0000.6,0015.19,0008.02,0007.12
2023-08-23 08:16:00,SystemResetWarning,0834.5,5.01,000.00,028.1,024.8,000.0,036.5,029.5,26.1,0001.0,0015.11,0008.04,0007.12
2023-08-23 08:17:00,SystemResetWarning,0834.5,5.01,000.00,028.1,025.1,000.0,036.5,029.6,26.0,0001.2,0014.58,0008.07,0007.14
2023-08-23 08:18:00,SystemResetWarning,0834.5,4.99,000.00,028.1,025.5,000.0,036.5,029.6,26.0,0001.0,0014.39,0008.08,0007.15
2023-08-23 08:19:00,SystemResetWarning,0834.5,5.00,000.00,028.1,025.8,000.0,036.6,029.7,25.6,0001.8,0014.32,0008.05,0007.16
2023-08-23 08:20:00,SystemResetWarning,0834.5,5.01,000.00,028.1,026.1,000.0,036.6,029.8,25.8,0001.9,0014.43,0008.02,0007.16
2023-08-23 08:21:00,SystemResetWarning,0834.5,5.00,000.00,028.2,026.4,000.0,036.6,029.8,25.8,0002.3,0014.93,0008.01,0007.14
2023-08-23 08:22:00,SystemResetWarning,0834.5,5.00,000.00,028.2,026.6,000.0,036.6,029.9,25.7,0002.5,0014.99,0008.01,0007.14
2023-08-23 08:23:00,SystemResetWarning,0835.1,5.00,000.00,028.2,026.8,000.0,036.6,029.9,25.3,0002.4,0015.58,0007.99,0007.14
2023-08-23 08:24:00,SystemResetWarning,0835.1,5.00,000.00,028.3,027.0,000.0,036.6,030.0,25.4,0002.0,0015.63,0008.00,0007.13
2023-08-23 08:25:00,SystemResetWarning,0834.9,5.00,000.00,028.3,027.1,000.0,036.7,030.1,25.4,0001.8,0015.69,0008.04,0007.12
2023-08-23 08:26:00,SystemResetWarning,0834.5,5.00,000.00,028.4,027.2,000.0,036.7,030.1,25.2,0002.2,0015.15,0008.07,0007.12
2023-08-23 08:27:00,SystemResetWarning,0834.6,4.98,000.00,028.4,026.5,000.0,036.6,030.0,25.2,0002.2,0016.74,0008.06,0007.12
2023-08-23 08:28:00,SystemResetWarning,0834.8,5.01,000.00,028.3,024.8,000.0,036.5,029.6,25.4,0002.1,0017.23,0008.03,0007.11
2023-08-23 08:29:00,SystemResetWarning,0834.8,5.01,000.00,028.2,024.6,000.0,036.4,029.5,25.5,0002.0,0018.14,0008.04,0007.10
2023-08-23 08:30:00,SystemResetWarning,0834.6,5.00,000.00,028.1,024.8,000.0,036.5,029.4,25.5,0001.8,0019.11,0008.02,0007.08
2023-08-23 08:31:00,SystemResetWarning,0834.7,5.00,000.00,028.1,025.1,000.0,036.5,029.5,25.2,0001.3,0019.39,0008.02,0007.08
2023-08-23 08:32:00,SystemResetWarning,0834.7,4.99,000.00,028.1,025.5,000.0,036.5,029.6,25.0,0001.1,0018.81,0008.00,0007.08
2023-08-23 08:33:00,SystemResetWarning,0835.0,5.00,000.00,028.1,025.8,000.0,036.6,029.7,24.7,0001.2,0018.92,0008.00,0007.08
2023-08-23 08:34:00,SystemResetWarning,0834.9,5.01,000.00,028.1,026.1,000.0,036.6,029.7,24.7,0001.1,0018.50,0007.99,0007.09
2023-08-23 08:35:00,SystemResetWarning,0835.1,5.00,000.00,028.2,026.4,000.0,036.6,029.8,24.5,0001.1,0018.75,0008.01,0007.10
2023-08-23 08:36:00,SystemResetWarning,0835.0,4.99,000.00,028.2,026.6,000.0,036.6,029.9,24.4,0001.0,0019.11,0008.02,0007.12
2023-08-23 08:37:00,SystemResetWarning,0835.0,4.99,000.00,028.2,026.8,000.0,036.6,029.9,24.3,0000.5,0018.82,0007.98,0007.12
2023-08-23 08:38:00,SystemResetWarning,0834.9,5.00,000.00,028.3,027.0,000.0,036.6,030.0,24.2,0000.5,0017.30,0007.98,0007.13
2023-08-23 08:39:00,SystemResetWarning,0834.7,5.01,000.00,028.3,027.1,000.0,036.7,030.0,24.1,0000.1,0016.74,0007.96,0007.14
2023-08-23 08:40:00,SystemResetWarning,0835.2,5.00,000.00,028.4,027.2,000.0,036.7,030.1,24.1,0000.1,0015.88,0007.97,0007.17
2023-08-23 08:41:00,SystemResetWarning,0834.9,4.98,000.00,028.4,026.2,000.0,036.6,029.9,24.1,0000.1,0014.90,0008.03,0007.21
2023-08-23 08:42:00,SystemResetWarning,0834.7,5.00,000.00,028.3,024.7,000.0,036.5,029.6,24.2,0000.6,0014.69,0008.07,0007.25
2023-08-23 08:43:00,SystemResetWarning,0835.0,5.01,000.00,028.2,024.6,000.0,036.4,029.5,24.2,0000.7,0015.57,0008.12,0007.30
2023-08-23 08:44:00,SystemResetWarning,0834.9,5.01,000.00,028.1,024.8,000.0,036.5,029.4,24.7,0000.4,0015.41,0008.14,0007.33
2023-08-23 08:45:00,SystemResetWarning,0834.9,4.98,000.00,028.1,025.2,000.0,036.5,029.5,24.8,0000.8,0015.30,0008.22,0007.37
2023-08-23 08:46:00,SystemResetWarning,0834.7,5.00,000.00,028.1,025.5,000.0,036.5,029.6,24.8,0001.1,0014.75,0008.29,0007.39
2023-08-23 08:47:00,SystemResetWarning,0834.7,5.00,000.00,028.1,025.9,000.0,036.5,029.7,24.9,0001.2,0014.41,0008.30,0007.42
2023-08-23 08:48:00,SystemResetWarning,0834.6,5.00,000.00,028.1,026.2,000.0,036.6,029.8,24.9,0001.3,0014.60,0008.37,0007.46
2023-08-23 08:49:00,SystemResetWarning,0834.7,5.00,000.00,028.2,026.4,000.0,036.6,029.8,24.7,0001.2,0014.72,0008.46,0007.50
2023-08-23 08:50:00,SystemResetWarning,0834.7,5.00,000.00,028.2,026.6,000.0,036.6,029.9,24.8,0001.4,0014.92,0008.55,0007.52
2023-08-23 08:51:00,SystemResetWarning,0834.7,5.00,000.00,028.2,026.8,000.0,036.6,029.9,24.7,0001.3,0014.99,0008.60,0007.52
2023-08-23 08:52:00,SystemResetWarning,0834.6,5.00,000.00,028.3,027.0,000.0,036.6,030.0,24.6,0001.2,0014.57,0008.61,0007.54
2023-08-23 08:53:00,SystemResetWarning,0834.9,5.00,000.00,028.3,027.1,000.0,036.7,030.0,24.6,0001.0,0014.82,0008.64,0007.53
2023-08-23 08:54:00,SystemResetWarning,0835.0,4.99,000.00,028.3,027.2,000.0,036.7,030.1,24.4,0000.6,0014.01,0008.67,0007.52
2023-08-23 08:55:00,SystemResetWarning,0835.0,4.99,000.00,028.4,026.9,000.0,036.7,030.0,24.3,0000.4,0014.43,0008.70,0007.53
2023-08-23 08:56:00,SystemResetWarning,0834.6,5.01,000.00,028.3,025.1,000.0,036.5,029.7,24.2,0000.2,0015.02,0008.65,0007.52
2023-08-23 08:57:00,SystemResetWarning,0834.7,5.00,000.00,028.2,024.5,000.0,036.4,029.5,24.2,0000.3,0014.85,0008.59,0007.53
2023-08-23 08:58:00,SystemResetWarning,0834.6,5.01,000.00,028.1,024.7,000.0,036.5,029.5,24.2,0000.0,0015.10,0008.62,0007.53
2023-08-23 08:59:00,SystemResetWarning,0834.6,5.00,000.00,028.1,025.0,000.0,036.5,029.5,24.0,0000.1,0015.11,0008.62,0007.53
